When you browse on this site, cookies collect data to enhance your experience and personalize the content and advertising you see.
Visit our Privacy Policy to learn more. By continuing to use the site, you agree to this use of cookies and data.
  • In Hungary
  • List of Countries
  • For 7 days
  • Water Temperature
  • Satellite Maps
  • Weather Map
  • News
  • Weather Widgets
  • user-avatar
    Login

    Hourly Weather Kostrzyn

    Today, 19 April, Friday

    Time Temperature Precipitation Wind Pressure Humidity
    00:00 +10°C° 0 mm 3 mps 765 mmHg 69%
    01:00 +9°C° 0 mm 3 mps 765 mmHg 70%
    02:00 +8°C° 0 mm 3 mps 765 mmHg 70%
    03:00 +8°C° 0 mm 3 mps 765 mmHg 71%
    04:00 +7°C° 0 mm 3 mps 766 mmHg 71%
    05:00 +8°C° 0 mm 3 mps 766 mmHg 68%
    06:00 +9°C° 0 mm 3 mps 766 mmHg 66%
    07:00 +10°C° 0 mm 2 mps 766 mmHg 63%
    08:00 +13°C° 0 mm 2 mps 766 mmHg 58%
    09:00 +15°C° 0 mm 2 mps 766 mmHg 53%
    10:00 +17°C° 0 mm 2 mps 766 mmHg 48%
    11:00 +18°C° 0 mm 2 mps 766 mmHg 44%
    12:00 +19°C° 0 mm 2 mps 766 mmHg 40%
    13:00 +20°C° 0 mm 2 mps 766 mmHg 37%
    14:00 +20°C° 0 mm 2 mps 765 mmHg 36%
    15:00 +20°C° 0 mm 2 mps 765 mmHg 36%
    16:00 +20°C° 0 mm 2 mps 765 mmHg 36%
    17:00 +19°C° 0 mm 2 mps 765 mmHg 40%
    18:00 +17°C° 0 mm 2 mps 765 mmHg 45%
    19:00 +15°C° 0 mm 1 mps 764 mmHg 50%
    20:00 +14°C° 0 mm 2 mps 765 mmHg 53%
    21:00 +13°C° 0 mm 2 mps 765 mmHg 57%
    22:00 +11°C° 0 mm 3 mps 765 mmHg 60%
    23:00 +10°C° 0 mm 2 mps 765 mmHg 60%

    Tomorrow, 20 April, Saturday

    Time Temperature Precipitation Wind Pressure Humidity
    00:00 +9°C° 0 mm 2 mps 765 mmHg 60%
    01:00 +8°C° 0 mm 2 mps 765 mmHg 60%
    02:00 +8°C° 0 mm 2 mps 765 mmHg 56%
    03:00 +7°C° 0 mm 2 mps 765 mmHg 53%
    04:00 +6°C° 0 mm 2 mps 764 mmHg 49%
    05:00 +7°C° 0 mm 2 mps 765 mmHg 48%
    06:00 +8°C° 0 mm 2 mps 765 mmHg 48%
    07:00 +8°C° 0 mm 2 mps 765 mmHg 47%
    08:00 +10°C° 0 mm 2 mps 764 mmHg 43%
    09:00 +13°C° 0 mm 2 mps 764 mmHg 40%
    10:00 +14°C° 0 mm 3 mps 764 mmHg 36%
    11:00 +16°C° 0 mm 3 mps 764 mmHg 36%
    12:00 +17°C° 0 mm 3 mps 764 mmHg 35%
    13:00 +18°C° 0 mm 3 mps 763 mmHg 35%
    14:00 +18°C° 0 mm 3 mps 763 mmHg 36%
    15:00 +18°C° 0 mm 3 mps 763 mmHg 37%
    16:00 +18°C° 0 mm 3 mps 762 mmHg 38%
    17:00 +17°C° 0 mm 2 mps 762 mmHg 43%
    18:00 +15°C° 0 mm 2 mps 762 mmHg 47%
    19:00 +14°C° 0 mm 2 mps 762 mmHg 52%
    20:00 +12°C° 0 mm 2 mps 762 mmHg 54%
    21:00 +10°C° 0 mm 3 mps 762 mmHg 56%
    22:00 +9°C° 0 mm 3 mps 762 mmHg 59%
    23:00 +9°C° 0 mm 3 mps 762 mmHg 58%

    Day after tomorrow, 21 April, Sunday

    Time Temperature Precipitation Wind Pressure Humidity
    00:00 +8°C° 0 mm 2 mps 762 mmHg 58%
    01:00 +7°C° 0 mm 2 mps 762 mmHg 58%
    02:00 +7°C° 0 mm 2 mps 762 mmHg 60%
    03:00 +7°C° 0 mm 1 mps 761 mmHg 61%
    04:00 +7°C° 0 mm 1 mps 761 mmHg 62%
    05:00 +8°C° 0 mm 1 mps 761 mmHg 61%
    06:00 +9°C° 0 mm 1 mps 761 mmHg 59%
    07:00 +10°C° 0 mm 1 mps 761 mmHg 57%
    08:00 +12°C° 0 mm 1 mps 760 mmHg 52%
    09:00 +14°C° 0 mm 2 mps 760 mmHg 47%
    10:00 +15°C° 0 mm 2 mps 760 mmHg 42%
    11:00 +16°C° 0 mm 2 mps 759 mmHg 40%
    12:00 +17°C° 0 mm 2 mps 759 mmHg 38%
    13:00 +18°C° 0 mm 2 mps 758 mmHg 36%
    14:00 +18°C° 0 mm 2 mps 758 mmHg 37%
    15:00 +18°C° 0 mm 2 mps 757 mmHg 38%
    16:00 +18°C° 0 mm 2 mps 757 mmHg 39%
    17:00 +17°C° 0 mm 2 mps 757 mmHg 43%
    18:00 +16°C° 0 mm 3 mps 757 mmHg 47%
    19:00 +14°C° 0 mm 3 mps 756 mmHg 52%
    20:00 +12°C° 0 mm 3 mps 757 mmHg 61%
    21:00 +10°C° 0 mm 4 mps 757 mmHg 70%
    22:00 +7°C° 0 mm 4 mps 757 mmHg 80%
    23:00 +8°C° 0.2 mm 3 mps 757 mmHg 83%

    22 April, Monday

    Time Temperature Precipitation Wind Pressure Humidity
    00:00 +8°C° 0.2 mm 3 mps 756 mmHg 85%
    01:00 +8°C° 0.2 mm 2 mps 756 mmHg 88%
    02:00 +7°C° 0 mm 2 mps 756 mmHg 88%
    03:00 +5°C° 0 mm 3 mps 756 mmHg 88%
    04:00 +4°C° 0 mm 3 mps 756 mmHg 87%
    05:00 +5°C° 0 mm 3 mps 756 mmHg 84%
    06:00 +6°C° 0 mm 4 mps 756 mmHg 81%
    07:00 +7°C° 0 mm 4 mps 756 mmHg 78%
    08:00 +9°C° 0 mm 5 mps 756 mmHg 72%
    09:00 +11°C° 0 mm 6 mps 756 mmHg 66%
    10:00 +12°C° 0 mm 7 mps 756 mmHg 60%
    11:00 +14°C° 0 mm 7 mps 755 mmHg 57%
    12:00 +15°C° 0 mm 7 mps 755 mmHg 54%
    13:00 +16°C° 0 mm 7 mps 755 mmHg 51%
    14:00 +16°C° 0 mm 7 mps 754 mmHg 51%
    15:00 +16°C° 0 mm 8 mps 754 mmHg 52%
    16:00 +16°C° 0 mm 8 mps 754 mmHg 52%
    17:00 +15°C° 0 mm 7 mps 754 mmHg 56%
    18:00 +14°C° 0 mm 7 mps 754 mmHg 60%
    19:00 +13°C° 0 mm 6 mps 754 mmHg 64%
    20:00 +11°C° 0 mm 7 mps 754 mmHg 63%
    21:00 +11°C° 0 mm 7 mps 754 mmHg 62%
    22:00 +11°C° 0 mm 8 mps 753 mmHg 61%
    23:00 +10°C° 0 mm 8 mps 753 mmHg 60%

    23 April, Tuesday

    Time Temperature Precipitation Wind Pressure Humidity
    00:00 +9°C° 0 mm 8 mps 753 mmHg 60%
    01:00 +9°C° 0 mm 8 mps 753 mmHg 60%
    02:00 +9°C° 0 mm 8 mps 752 mmHg 62%
    03:00 +7°C° 0 mm 8 mps 752 mmHg 64%
    04:00 +7°C° 0 mm 8 mps 752 mmHg 66%
    05:00 +9°C° 0 mm 8 mps 752 mmHg 68%
    06:00 +8°C° 0 mm 9 mps 751 mmHg 69%
    07:00 +10°C° 0 mm 9 mps 751 mmHg 70%
    08:00 +11°C° 0 mm 9 mps 751 mmHg 64%
    09:00 +13°C° 0 mm 10 mps 751 mmHg 58%
    10:00 +16°C° 0 mm 10 mps 751 mmHg 53%
    11:00 +17°C° 0 mm 10 mps 751 mmHg 51%
    12:00 +18°C° 0 mm 10 mps 751 mmHg 49%
    13:00 +18°C° 0 mm 10 mps 750 mmHg 47%
    14:00 +18°C° 0 mm 10 mps 750 mmHg 47%
    15:00 +18°C° 0 mm 9 mps 750 mmHg 48%
    16:00 +18°C° 0 mm 9 mps 750 mmHg 48%
    17:00 +17°C° 0 mm 8 mps 750 mmHg 50%
    18:00 +16°C° 0 mm 7 mps 750 mmHg 52%
    19:00 +15°C° 0 mm 7 mps 750 mmHg 54%
    20:00 +14°C° 0 mm 7 mps 750 mmHg 56%
    21:00 +12°C° 0 mm 7 mps 750 mmHg 57%
    22:00 +11°C° 0 mm 7 mps 750 mmHg 59%
    23:00 +11°C° 0.1 mm 6 mps 750 mmHg 60%

    24 April, Wednesday

    Time Temperature Precipitation Wind Pressure Humidity
    00:00 +11°C° 0.1 mm 6 mps 750 mmHg 61%
    01:00 +11°C° 0.1 mm 6 mps 750 mmHg 62%
    02:00 +11°C° 0 mm 6 mps 750 mmHg 62%
    03:00 +10°C° 0 mm 6 mps 750 mmHg 61%
    04:00 +10°C° 0 mm 6 mps 750 mmHg 60%
    05:00 +11°C° 0 mm 6 mps 750 mmHg 61%
    06:00 +11°C° 0 mm 7 mps 750 mmHg 63%
    07:00 +11°C° 0 mm 7 mps 750 mmHg 64%
    08:00 +12°C° 0 mm 7 mps 750 mmHg 64%
    09:00 +14°C° 0 mm 7 mps 750 mmHg 63%
    10:00 +15°C° 0 mm 7 mps 750 mmHg 63%
    11:00 +16°C° 0 mm 7 mps 750 mmHg 62%
    12:00 +17°C° 0 mm 6 mps 750 mmHg 62%
    13:00 +19°C° 0 mm 6 mps 750 mmHg 62%
    14:00 +19°C° 0 mm 6 mps 750 mmHg 63%
    15:00 +19°C° 0 mm 5 mps 750 mmHg 65%
    16:00 +19°C° 0 mm 5 mps 750 mmHg 66%
    17:00 +17°C° 0 mm 5 mps 750 mmHg 70%
    18:00 +17°C° 0 mm 4 mps 750 mmHg 74%
    19:00 +15°C° 0 mm 4 mps 750 mmHg 79%
    20:00 +15°C° 0 mm 4 mps 750 mmHg 78%
    21:00 +15°C° 0 mm 4 mps 750 mmHg 78%
    22:00 +15°C° 0 mm 4 mps 750 mmHg 77%
    23:00 +14°C° 0 mm 4 mps 750 mmHg 78%
    Show more